Kamloops,

9:24 PM PST on November 18, 2017 (GMT -0800)
Kamloops

Weather History for CYKA - August, 2014

Change the Weather History Date:

Monday, August 11, 2014

  Actual Average Record
Temperature  
Mean Temperature 80 °F -  
Max Temperature 100 °F 78 °F 100 °F (2014)
Min Temperature 60 °F 52 °F 51 °F (2003)
Cooling Degree Days 15    
Growing Degree Days 30 (Base 50)    
Moisture  
Dew Point 48 °F    
Average Humidity 34    
Maximum Humidity 59    
Minimum Humidity 8    
Precipitation  
Precipitation 0.00 in 0.04 in - ()
Sea Level Pressure  
Sea Level Pressure 29.97 in    
Wind  
Wind Speed 4 mph ()    
Max Wind Speed 12 mph    
Max Gust Speed -    
Averages and records for this station are not official NWS values.
T = Trace of Precipitation, MM = Missing Value Source: Averaged Metar Reports

Daily Weather History Graph

Daily Weather History Graph

Search for Another Location

Airport or City:

Trip Planner

Search our weather history database for the weather conditions in past years. The results will help you decide how hot, cold, wet, or windy it might be!

Date:

Astronomy

Aug. 11, 2014 Rise Set
Actual Time 5:43 AM PDT 8:29 PM PDT
Civil Twilight 5:06 AM PDT 9:06 PM PDT
Nautical Twilight 4:18 AM PDT 9:54 PM PDT
Astronomical Twilight 3:19 AM PDT 10:52 PM PDT
Moon 8:43 PM PDT (8/11) 7:08 AM PDT (8/11)
Length of Visible Light 16h 00m
Length of Day
14h 45m
Full, 98% of the Moon is Illuminated
Aug 11
Full
Aug 17
Last Quarter
Aug 25
New
Sep 2
First Quarter
Sep 8
Full

Hourly Weather History & Observations

Time (PDT) Temp. Dew Point Humidity Pressure Visibility Wind Dir Wind Speed Gust Speed Precip Events Conditions
12:00 AM 73.4 °F 46.4 °F 38% 30.06 in 40.0 mi East 8.1 mph - N/A   Clear
2:00 AM 66.2 °F 48.2 °F 52% 30.09 in 40.0 mi Calm Calm - N/A   Clear
3:00 AM 64.4 °F 48.2 °F 56% 30.09 in 40.0 mi Variable 2.3 mph - N/A   Clear
5:00 AM 62 °F 48 °F 50% 30.11 in 37 mi East 2.3 mph - -  
6:00 AM 60.8 °F 46.4 °F 59% 30.11 in 40.0 mi Variable 2.3 mph - N/A   Clear
7:00 AM 64.4 °F 48.2 °F 56% 30.12 in 40.0 mi ENE 2.3 mph - N/A   Clear
8:00 AM 68.0 °F 48.2 °F 49% 30.11 in 40.0 mi Calm Calm - N/A   Partly Cloudy
9:00 AM 71.6 °F 48.2 °F 43% 30.10 in 40.0 mi ESE 4.6 mph - N/A   Partly Cloudy
10:00 AM 75.2 °F 48.2 °F 38% 30.07 in 40.0 mi East 4.6 mph - N/A   Partly Cloudy
11:00 AM 79 °F 49 °F 25% 30.05 in 37 mi ESE 3.5 mph - -   Clear
11:00 AM 78.8 °F 50.0 °F 36% 30.05 in 40.0 mi ESE 5.8 mph - N/A   Partly Cloudy
1:00 PM 87.8 °F 48.2 °F 25% 29.97 in 40.0 mi ESE 11.5 mph - N/A   Clear
2:00 PM 91.4 °F 50.0 °F 24% 29.94 in 40.0 mi ESE 8.1 mph - N/A   Clear
3:00 PM 95.0 °F 44.6 °F 18% 29.90 in 40.0 mi ESE 6.9 mph - N/A   Clear
5:00 PM 100 °F 43 °F 8% 29.85 in 37 mi East 5.8 mph - -  
5:00 PM 100.4 °F 42.8 °F 14% 29.85 in 40.0 mi East 8.1 mph - N/A   Clear
6:00 PM 96.8 °F 46.4 °F 18% 29.83 in 30.0 mi ESE 5.8 mph - N/A   Clear
7:00 PM 93.2 °F 50.0 °F 23% 29.82 in 30.0 mi East 6.9 mph - N/A   Clear
8:00 PM 89.6 °F 48.2 °F 24% 29.83 in 40.0 mi East 9.2 mph - N/A   Mostly Cloudy
9:00 PM 87.8 °F 50.0 °F 27% 29.84 in 40.0 mi ESE 8.1 mph - N/A   Scattered Clouds
10:00 PM 84.2 °F 50.0 °F 30% 29.85 in 40.0 mi SE 3.5 mph - N/A   Scattered Clouds
11:00 PM 78 °F 48 °F 24% 29.86 in 37 mi East 8.1 mph - -   Clear
11:00 PM 78.8 °F 48.2 °F 34% 29.86 in 40.0 mi East 8.1 mph - N/A   Scattered Clouds